Data No,UTC Date,UTC Time,Latitude,Longitude,Course(deg),Temp(degC),Sal(psu)
4721,2007/1/26,9:14:07, 25-00.624N,119-59.943E,234.8,16.0404,33.1782
4722,2007/1/26,9:15:07, 25-00.497N,119-59.765E,235.5,16.0608,33.1869
4723,2007/1/26,9:16:07, 25-00.370N,119-59.585E,231.8,16.1296,33.1968
4724,2007/1/26,9:17:07, 25-00.239N,119-59.405E,227.3,16.0573,33.2083
4725,2007/1/26,9:18:07, 25-00.107N,119-59.226E,231.5,16.0261,33.2359
4726,2007/1/26,9:19:07, 24-59.979N,119-59.049E,232.1,15.977,33.2054
4727,2007/1/26,9:20:07, 24-59.852N,119-58.873E,231.7,15.9739,33.1818
4728,2007/1/26,9:21:07, 24-59.724N,119-58.697E,230.7,15.9461,33.1599
4729,2007/1/26,9:22:07, 24-59.597N,119-58.521E,235.3,15.9378,33.149
4730,2007/1/26,9:23:07, 24-59.470N,119-58.343E,230.5,15.9252,33.1341
4731,2007/1/26,9:24:07, 24-59.342N,119-58.164E,237.3,15.9065,33.1253
4732,2007/1/26,9:25:07, 24-59.211N,119-57.985E,232.9,15.852,33.1169
4733,2007/1/26,9:26:07, 24-59.082N,119-57.803E,232.3,15.7597,33.1041
4734,2007/1/26,9:27:07, 24-58.953N,119-57.623E,235.9,15.7213,33.0803
4736,2007/1/26,9:29:07, 24-58.696N,119-57.265E,228.1,15.734,33.0203
4737,2007/1/26,9:30:07, 24-58.568N,119-57.084E,228.3,15.7257,33.0292
4739,2007/1/26,9:32:07, 24-58.310N,119-56.724E,229.8,15.6243,32.9917
4741,2007/1/26,9:34:07, 24-58.052N,119-56.367E,225,15.2919,32.9363
4742,2007/1/26,9:35:07, 24-57.920N,119-56.188E,230.9,15.2989,32.8631
4743,2007/1/26,9:36:07, 24-57.792N,119-56.007E,233.9,15.2917,32.813
4744,2007/1/26,9:37:07, 24-57.664N,119-55.828E,229,15.2635,32.8005
4745,2007/1/26,9:38:07, 24-57.534N,119-55.650E,234.7,15.1807,32.7884
4746,2007/1/26,9:39:07, 24-57.403N,119-55.470E,232.2,15.0903,32.7708
4747,2007/1/26,9:40:07, 24-57.274N,119-55.290E,233.9,15.0134,32.7405
4748,2007/1/26,9:41:07, 24-57.143N,119-55.111E,234.6,14.9557,32.7094
4749,2007/1/26,9:42:07, 24-57.013N,119-54.932E,230.9,14.9402,32.6835
4750,2007/1/26,9:43:07, 24-56.881N,119-54.753E,231.8,14.9092,32.6636
4751,2007/1/26,9:44:07, 24-56.750N,119-54.575E,232.2,14.86,32.6576
4752,2007/1/26,9:45:07, 24-56.619N,119-54.396E,234.1,14.7508,32.6493
4753,2007/1/26,9:46:07, 24-56.486N,119-54.220E,230.3,14.7869,32.6289
4754,2007/1/26,9:47:07, 24-56.353N,119-54.040E,230.4,14.7332,32.592
4755,2007/1/26,9:48:07, 24-56.219N,119-53.861E,228.5,14.7108,32.5995
4758,2007/1/26,9:51:07, 24-55.813N,119-53.314E,231.7,14.629,32.527
4759,2007/1/26,9:52:07, 24-55.674N,119-53.134E,224.3,14.6411,32.5038
4760,2007/1/26,9:53:07, 24-55.535N,119-52.958E,230.4,14.5112,32.5171
4761,2007/1/26,9:54:07, 24-55.396N,119-52.779E,227.5,14.2887,32.5219
4762,2007/1/26,9:55:07, 24-55.259N,119-52.604E,234.4,14.2439,32.4412
4763,2007/1/26,9:56:07, 24-55.126N,119-52.429E,232.7,14.1963,32.3118
4764,2007/1/26,9:57:07, 24-54.994N,119-52.252E,232.5,14.215,32.2545
4765,2007/1/26,9:58:07, 24-54.862N,119-52.081E,228.6,14.1768,32.2241
4766,2007/1/26,9:59:07, 24-54.727N,119-51.907E,231.8,14.1842,32.2188
4767,2007/1/26,10:00:07, 24-54.592N,119-51.735E,228.3,14.0104,32.2053
4768,2007/1/26,10:01:07, 24-54.456N,119-51.567E,229.3,13.9801,32.1499
4769,2007/1/26,10:02:07, 24-54.318N,119-51.397E,223.9,14.0399,32.0295
4770,2007/1/26,10:03:07, 24-54.182N,119-51.227E,231.2,14.0996,31.9598
4771,2007/1/26,10:04:07, 24-54.044N,119-51.056E,229.4,14.1313,31.9361
4772,2007/1/26,10:05:07, 24-53.905N,119-50.887E,231.1,14.1438,31.9262
4773,2007/1/26,10:06:07, 24-53.769N,119-50.716E,227.1,14.1237,31.9168
4774,2007/1/26,10:07:07, 24-53.634N,119-50.543E,225.3,14.1158,31.9031
4775,2007/1/26,10:08:07, 24-53.496N,119-50.369E,228.5,14.101,31.8893
4776,2007/1/26,10:09:07, 24-53.361N,119-50.195E,226.4,14.083,31.8793
4777,2007/1/26,10:10:07, 24-53.226N,119-50.019E,229.8,14.0773,31.8746
4778,2007/1/26,10:11:07, 24-53.091N,119-49.844E,234.1,14.0771,31.8719
4779,2007/1/26,10:12:07, 24-52.959N,119-49.670E,232.7,14.0719,31.8694
4780,2007/1/26,10:13:07, 24-52.826N,119-49.495E,229.8,14.0571,31.868
4781,2007/1/26,10:14:07, 24-52.694N,119-49.319E,227.9,14.056,31.866
4782,2007/1/26,10:15:07, 24-52.563N,119-49.141E,231.3,14.0519,31.8663
4783,2007/1/26,10:16:07, 24-52.430N,119-48.963E,236.2,14.0541,31.8645
4784,2007/1/26,10:17:07, 24-52.302N,119-48.787E,231.7,14.0441,31.8644
4785,2007/1/26,10:18:07, 24-52.171N,119-48.610E,230.7,14.0481,31.8627
4786,2007/1/26,10:19:07, 24-52.040N,119-48.431E,229.7,14.0481,31.8627
4787,2007/1/26,10:20:07, 24-51.909N,119-48.252E,228.8,14.0527,31.8632
4788,2007/1/26,10:21:07, 24-51.777N,119-48.077E,232.1,14.0482,31.8623
4789,2007/1/26,10:22:07, 24-51.644N,119-47.906E,228,14.0524,31.8618
4790,2007/1/26,10:23:07, 24-51.513N,119-47.737E,228,14.0439,31.8658
4791,2007/1/26,10:24:07, 24-51.384N,119-47.566E,231.4,13.9835,31.8701
4792,2007/1/26,10:25:07, 24-51.254N,119-47.395E,229.5,13.9868,31.8577
4793,2007/1/26,10:26:07, 24-51.120N,119-47.220E,231.9,13.9972,31.8063
4794,2007/1/26,10:27:07, 24-50.988N,119-47.046E,228.1,14.0718,31.7803
4795,2007/1/26,10:28:07, 24-50.857N,119-46.870E,229.9,14.158,31.7615
4796,2007/1/26,10:29:07, 24-50.724N,119-46.696E,231,14.146,31.76
4797,2007/1/26,10:30:07, 24-50.593N,119-46.522E,231.9,14.1033,31.7555
4798,2007/1/26,10:31:07, 24-50.462N,119-46.346E,228.7,14.0713,31.7212
4799,2007/1/26,10:32:07, 24-50.332N,119-46.166E,231.7,14.0762,31.6857
4800,2007/1/26,10:33:07, 24-50.208N,119-45.985E,229.6,14.081,31.6677
4801,2007/1/26,10:34:07, 24-50.083N,119-45.804E,234.6,14.0844,31.6696
4802,2007/1/26,10:35:07, 24-49.958N,119-45.621E,233.7,14.0785,31.668
4803,2007/1/26,10:36:07, 24-49.832N,119-45.436E,233.3,14.0515,31.6696
4804,2007/1/26,10:37:07, 24-49.705N,119-45.253E,238.9,14.0267,31.6644
4805,2007/1/26,10:38:07, 24-49.581N,119-45.072E,234.3,14.0175,31.6498
4806,2007/1/26,10:39:07, 24-49.457N,119-44.889E,232.1,13.9945,31.6334
4807,2007/1/26,10:40:07, 24-49.332N,119-44.708E,231.6,13.9962,31.6239
4808,2007/1/26,10:41:07, 24-49.209N,119-44.526E,234.2,14.0041,31.6124
4809,2007/1/26,10:42:07, 24-49.086N,119-44.343E,236.7,14.0314,31.6089
4810,2007/1/26,10:43:07, 24-48.961N,119-44.159E,235.4,14.0465,31.6122
4811,2007/1/26,10:44:07, 24-48.838N,119-43.974E,236.2,14.0385,31.6195
4812,2007/1/26,10:45:07, 24-48.715N,119-43.787E,232,14.0533,31.6307
4813,2007/1/26,10:46:07, 24-48.592N,119-43.602E,237.8,14.0726,31.6323
4814,2007/1/26,10:47:07, 24-48.470N,119-43.416E,233.3,14.0827,31.6436
4815,2007/1/26,10:48:07, 24-48.348N,119-43.230E,232.5,14.1262,31.6527
4816,2007/1/26,10:49:07, 24-48.226N,119-43.043E,233.8,14.1355,31.6656
4817,2007/1/26,10:50:07, 24-48.105N,119-42.859E,233.8,14.1626,31.6861
4818,2007/1/26,10:51:07, 24-47.985N,119-42.676E,236,14.1678,31.6985
4819,2007/1/26,10:52:07, 24-47.866N,119-42.491E,233.3,14.2172,31.7106
4820,2007/1/26,10:53:07, 24-47.747N,119-42.306E,233.6,14.2412,31.7224
4821,2007/1/26,10:54:07, 24-47.628N,119-42.123E,231,14.3296,31.7474
4822,2007/1/26,10:55:07, 24-47.510N,119-41.940E,236.3,14.363,31.7772
4823,2007/1/26,10:56:07, 24-47.392N,119-41.755E,237.3,14.4066,31.8243
4824,2007/1/26,10:57:07, 24-47.274N,119-41.571E,237,14.4264,31.8484
4825,2007/1/26,10:58:07, 24-47.156N,119-41.387E,236,14.4515,31.8699
4826,2007/1/26,10:59:07, 24-47.040N,119-41.201E,234.7,14.4712,31.8874
4827,2007/1/26,11:00:07, 24-46.921N,119-41.017E,232.7,14.4891,31.9024
4828,2007/1/26,11:01:07, 24-46.803N,119-40.834E,237.4,14.5052,31.9166
4829,2007/1/26,11:02:07, 24-46.687N,119-40.648E,235.8,14.4738,31.9258
4830,2007/1/26,11:03:07, 24-46.568N,119-40.462E,234.7,14.4951,31.9334
4831,2007/1/26,11:04:07, 24-46.453N,119-40.278E,235.9,14.5747,31.9196
4832,2007/1/26,11:05:07, 24-46.337N,119-40.095E,233.7,14.6162,31.9338
4833,2007/1/26,11:06:07, 24-46.222N,119-39.913E,234,14.6555,31.9722
4834,2007/1/26,11:07:07, 24-46.107N,119-39.735E,234.2,14.8194,31.9983
4835,2007/1/26,11:08:07, 24-45.993N,119-39.556E,236.1,15.0725,32.0242
4836,2007/1/26,11:09:07, 24-45.876N,119-39.377E,236.6,15.061,32.116
4837,2007/1/26,11:10:07, 24-45.762N,119-39.198E,235.4,15.0509,32.1929
4838,2007/1/26,11:11:07, 24-45.647N,119-39.018E,236.3,15.0254,32.197
4839,2007/1/26,11:12:07, 24-45.533N,119-38.839E,232.2,15.0016,32.1888
4840,2007/1/26,11:13:07, 24-45.418N,119-38.661E,235.4,15.0032,32.1798
4841,2007/1/26,11:14:07, 24-45.304N,119-38.480E,232.8,15.0046,32.1725
4842,2007/1/26,11:15:07, 24-45.188N,119-38.299E,235.4,15.0081,32.1689
4843,2007/1/26,11:16:07, 24-45.073N,119-38.116E,233.3,15.0346,32.1679
4844,2007/1/26,11:17:07, 24-44.957N,119-37.935E,237.6,15.0344,32.1689
4845,2007/1/26,11:18:07, 24-44.843N,119-37.753E,234.2,15.031,32.1764
4846,2007/1/26,11:19:07, 24-44.732N,119-37.574E,230.8,15.0305,32.1787
4847,2007/1/26,11:20:07, 24-44.619N,119-37.403E,232,15.0388,32.1784
4848,2007/1/26,11:21:07, 24-44.506N,119-37.231E,231.4,15.048,32.1785
4849,2007/1/26,11:22:07, 24-44.392N,119-37.059E,233.8,15.0591,32.1798
4850,2007/1/26,11:23:07, 24-44.276N,119-36.883E,236.9,15.0457,32.1826
4851,2007/1/26,11:24:07, 24-44.159N,119-36.707E,235.3,15.0628,32.1872
4852,2007/1/26,11:25:07, 24-44.042N,119-36.530E,229.6,15.0689,32.1902
4853,2007/1/26,11:26:07, 24-43.925N,119-36.353E,230.6,15.082,32.1987
4854,2007/1/26,11:27:07, 24-43.808N,119-36.173E,234.2,15.0934,32.2045
4855,2007/1/26,11:28:07, 24-43.692N,119-35.995E,234.3,15.0879,32.2119
4856,2007/1/26,11:29:07, 24-43.573N,119-35.816E,234.5,15.0949,32.2205
4857,2007/1/26,11:30:07, 24-43.455N,119-35.637E,235.2,15.1175,32.2272
4858,2007/1/26,11:31:07, 24-43.337N,119-35.459E,235.2,15.1276,32.2363
4859,2007/1/26,11:32:07, 24-43.219N,119-35.281E,232.7,15.1582,32.2455
4860,2007/1/26,11:33:07, 24-43.098N,119-35.102E,233.5,15.2065,32.2579
4861,2007/1/26,11:34:07, 24-42.980N,119-34.922E,234.4,15.2999,32.2831
4862,2007/1/26,11:35:07, 24-42.861N,119-34.743E,231.5,15.3291,32.3133
4863,2007/1/26,11:36:07, 24-42.741N,119-34.567E,232.9,15.3344,32.349
4864,2007/1/26,11:37:07, 24-42.622N,119-34.391E,235.2,15.3508,32.3668
4865,2007/1/26,11:38:07, 24-42.504N,119-34.215E,232.7,15.3384,32.3728
4866,2007/1/26,11:39:07, 24-42.386N,119-34.037E,232.8,15.3397,32.3798
4867,2007/1/26,11:40:07, 24-42.267N,119-33.859E,232.4,15.3364,32.381
4868,2007/1/26,11:41:07, 24-42.148N,119-33.678E,233.8,15.3299,32.3846
4869,2007/1/26,11:42:07, 24-42.029N,119-33.498E,235.4,15.3243,32.3884
4870,2007/1/26,11:43:07, 24-41.911N,119-33.317E,236.4,15.3363,32.3903
4871,2007/1/26,11:44:07, 24-41.791N,119-33.136E,233.9,15.3637,32.3932
4872,2007/1/26,11:45:07, 24-41.673N,119-32.954E,229.5,15.3906,32.4004
4873,2007/1/26,11:46:07, 24-41.553N,119-32.772E,234,15.419,32.4114
4874,2007/1/26,11:47:07, 24-41.435N,119-32.590E,233.6,15.4351,32.426
4875,2007/1/26,11:48:07, 24-41.320N,119-32.407E,236.1,15.4937,32.4407
4876,2007/1/26,11:49:07, 24-41.203N,119-32.225E,234.6,15.5674,32.4534
4877,2007/1/26,11:50:07, 24-41.088N,119-32.044E,235.8,15.6255,32.4818
4878,2007/1/26,11:51:07, 24-40.972N,119-31.860E,236.3,15.658,32.5101
4879,2007/1/26,11:52:07, 24-40.858N,119-31.678E,234.6,15.6991,32.5371
4880,2007/1/26,11:53:07, 24-40.742N,119-31.497E,235.8,15.7724,32.5575
4881,2007/1/26,11:54:07, 24-40.625N,119-31.318E,239.1,15.832,32.5794
4882,2007/1/26,11:55:07, 24-40.510N,119-31.135E,234.5,15.8674,32.6121
4883,2007/1/26,11:56:07, 24-40.396N,119-30.954E,236.6,15.9066,32.6427
4884,2007/1/26,11:57:07, 24-40.280N,119-30.768E,235.2,15.9489,32.6642
4885,2007/1/26,11:58:07, 24-40.164N,119-30.587E,235.6,16.0044,32.6855
4886,2007/1/26,11:59:07, 24-40.049N,119-30.405E,237,16.0218,32.7092
4887,2007/1/26,12:00:07, 24-39.934N,119-30.226E,237.1,16.0701,32.7319
4888,2007/1/26,12:01:07, 24-39.821N,119-30.044E,236.5,16.0927,32.7537
4889,2007/1/26,12:02:07, 24-39.706N,119-29.860E,233.5,16.0992,32.7721
4890,2007/1/26,12:03:07, 24-39.591N,119-29.676E,230,16.1128,32.7858
4891,2007/1/26,12:04:07, 24-39.471N,119-29.498E,233.3,16.1294,32.7913
4892,2007/1/26,12:05:07, 24-39.347N,119-29.324E,231.4,16.1554,32.8016
4893,2007/1/26,12:06:07, 24-39.224N,119-29.149E,230.3,16.1679,32.8086
4894,2007/1/26,12:07:07, 24-39.102N,119-28.971E,235.2,16.1913,32.8194
4895,2007/1/26,12:08:07, 24-38.978N,119-28.795E,234.3,16.2191,32.8305
4896,2007/1/26,12:09:07, 24-38.854N,119-28.622E,234.1,16.2401,32.841
4897,2007/1/26,12:10:07, 24-38.733N,119-28.447E,230.2,16.2608,32.8527
4898,2007/1/26,12:11:07, 24-38.611N,119-28.271E,230.7,16.2708,32.865
4899,2007/1/26,12:12:07, 24-38.488N,119-28.095E,231.8,16.286,32.8749
4900,2007/1/26,12:13:07, 24-38.366N,119-27.918E,228.9,16.2922,32.8828
4901,2007/1/26,12:14:07, 24-38.244N,119-27.742E,232.8,16.3087,32.8912
4902,2007/1/26,12:15:07, 24-38.123N,119-27.566E,234,16.3213,32.8966
4903,2007/1/26,12:16:07, 24-38.000N,119-27.390E,231.8,16.324,32.9029
4904,2007/1/26,12:17:07, 24-37.877N,119-27.214E,234.1,16.3423,32.9106
4905,2007/1/26,12:18:07, 24-37.754N,119-27.038E,236,16.3484,32.918
4906,2007/1/26,12:19:07, 24-37.632N,119-26.864E,232,16.3694,32.9242
4907,2007/1/26,12:20:07, 24-37.514N,119-26.692E,231.6,16.3613,32.9303
4908,2007/1/26,12:21:07, 24-37.394N,119-26.521E,232.7,16.3636,32.9377
4909,2007/1/26,12:22:07, 24-37.272N,119-26.349E,230.6,16.3871,32.9409
4910,2007/1/26,12:23:07, 24-37.149N,119-26.173E,227.5,16.3861,32.944
4911,2007/1/26,12:24:07, 24-37.026N,119-25.997E,235,16.3884,32.9507
4912,2007/1/26,12:25:07, 24-36.902N,119-25.821E,235,16.3915,32.9542
4913,2007/1/26,12:26:07, 24-36.779N,119-25.643E,232.8,16.4056,32.9576
4914,2007/1/26,12:27:07, 24-36.656N,119-25.466E,231.7,16.4212,32.9621
4915,2007/1/26,12:28:07, 24-36.533N,119-25.291E,230.9,16.4536,32.9698
4916,2007/1/26,12:29:07, 24-36.411N,119-25.116E,232.7,16.4604,32.9794
4917,2007/1/26,12:30:07, 24-36.288N,119-24.939E,232.6,16.4695,32.99
4918,2007/1/26,12:31:07, 24-36.164N,119-24.764E,234.4,16.4668,32.9972
4919,2007/1/26,12:32:07, 24-36.041N,119-24.588E,237.2,16.4984,33.0039
4920,2007/1/26,12:33:07, 24-35.919N,119-24.412E,233.5,16.5037,33.0081
4921,2007/1/26,12:34:07, 24-35.798N,119-24.239E,230.1,16.4958,33.0181
4922,2007/1/26,12:35:07, 24-35.676N,119-24.065E,232.4,16.5119,33.0258
4923,2007/1/26,12:36:07, 24-35.553N,119-23.889E,233.8,16.5207,33.0276
4924,2007/1/26,12:37:07, 24-35.431N,119-23.710E,235.4,16.5087,33.0323
4925,2007/1/26,12:38:07, 24-35.307N,119-23.536E,234.6,16.5133,33.0401
4926,2007/1/26,12:39:07, 24-35.185N,119-23.361E,234.8,16.5303,33.0409
4927,2007/1/26,12:40:07, 24-35.063N,119-23.188E,231.2,16.5438,33.0476
4928,2007/1/26,12:41:07, 24-34.942N,119-23.013E,229.8,16.5677,33.057
4929,2007/1/26,12:42:07, 24-34.819N,119-22.838E,232.6,16.5663,33.0641
4930,2007/1/26,12:43:07, 24-34.696N,119-22.660E,232.8,16.5972,33.0706
4931,2007/1/26,12:44:07, 24-34.572N,119-22.483E,232.8,16.5968,33.0762
4932,2007/1/26,12:45:07, 24-34.448N,119-22.306E,230.5,16.6042,33.0881
4933,2007/1/26,12:46:07, 24-34.325N,119-22.130E,232.5,16.6332,33.0925
4934,2007/1/26,12:47:07, 24-34.201N,119-21.953E,234.1,16.6653,33.099
4935,2007/1/26,12:48:07, 24-34.076N,119-21.778E,233.6,16.6784,33.1111
4936,2007/1/26,12:49:07, 24-33.952N,119-21.602E,231.5,16.7396,33.1255
4937,2007/1/26,12:50:07, 24-33.827N,119-21.425E,232.4,16.7482,33.1399
4938,2007/1/26,12:51:07, 24-33.702N,119-21.246E,229.2,16.7988,33.1577
4939,2007/1/26,12:52:07, 24-33.578N,119-21.068E,233.4,16.8443,33.1691
4940,2007/1/26,12:53:07, 24-33.455N,119-20.893E,234.7,16.8601,33.1895
4941,2007/1/26,12:54:07, 24-33.332N,119-20.716E,233,16.8423,33.2079
4942,2007/1/26,12:55:07, 24-33.210N,119-20.538E,234.3,16.8416,33.2145
4943,2007/1/26,12:56:07, 24-33.085N,119-20.364E,235.1,16.9019,33.2113
4944,2007/1/26,12:57:07, 24-32.961N,119-20.189E,233.7,16.9573,33.215
4945,2007/1/26,12:58:07, 24-32.839N,119-20.012E,228.9,16.976,33.2416
4946,2007/1/26,12:59:07, 24-32.717N,119-19.836E,227,17.0002,33.264
4947,2007/1/26,13:00:07, 24-32.593N,119-19.660E,233.8,17.0615,33.2756
4948,2007/1/26,13:01:07, 24-32.470N,119-19.484E,231.9,17.1089,33.2872
4949,2007/1/26,13:02:07, 24-32.344N,119-19.305E,231.8,17.126,33.314
4950,2007/1/26,13:03:07, 24-32.219N,119-19.131E,233.6,17.1137,33.3383
4951,2007/1/26,13:04:07, 24-32.097N,119-18.959E,233.7,17.3249,33.3456
4952,2007/1/26,13:05:07, 24-31.973N,119-18.788E,231.2,17.358,33.351
4953,2007/1/26,13:06:07, 24-31.850N,119-18.612E,229.5,17.3758,33.4284
4954,2007/1/26,13:07:07, 24-31.722N,119-18.435E,232.3,17.3794,33.4622
4955,2007/1/26,13:08:07, 24-31.595N,119-18.258E,234.5,17.393,33.474
4956,2007/1/26,13:09:07, 24-31.469N,119-18.082E,230.9,17.3966,33.4835
4957,2007/1/26,13:10:07, 24-31.345N,119-17.907E,233.8,17.404,33.492
4958,2007/1/26,13:11:07, 24-31.220N,119-17.732E,229.7,17.4142,33.4967
4959,2007/1/26,13:12:07, 24-31.094N,119-17.557E,231,17.4136,33.504
4960,2007/1/26,13:13:07, 24-30.969N,119-17.383E,232.1,17.4153,33.5114
4961,2007/1/26,13:14:07, 24-30.843N,119-17.209E,231.5,17.3982,33.5151
4962,2007/1/26,13:15:07, 24-30.715N,119-17.034E,232.9,17.3857,33.5197
4963,2007/1/26,13:16:07, 24-30.590N,119-16.856E,230.4,17.3773,33.5232
4964,2007/1/26,13:17:07, 24-30.463N,119-16.683E,231.3,17.3579,33.5248
4965,2007/1/26,13:18:07, 24-30.339N,119-16.510E,229.9,17.3416,33.5253
4966,2007/1/26,13:19:07, 24-30.214N,119-16.337E,231.3,17.3154,33.5254
4967,2007/1/26,13:20:07, 24-30.089N,119-16.163E,230.5,17.3018,33.5233
4968,2007/1/26,13:21:07, 24-29.963N,119-15.987E,233.6,17.2884,33.5208
4969,2007/1/26,13:22:07, 24-29.832N,119-15.818E,222.6,17.2568,33.5194
4970,2007/1/26,13:23:07, 24-29.677N,119-15.674E,219.2,17.2355,33.5175
4971,2007/1/26,13:24:07, 24-29.516N,119-15.535E,221.1,17.2164,33.5148
4972,2007/1/26,13:25:07, 24-29.361N,119-15.393E,222.1,17.2193,33.5124
4973,2007/1/26,13:26:07, 24-29.210N,119-15.255E,220.6,17.2119,33.5114
4974,2007/1/26,13:27:07, 24-29.054N,119-15.115E,219.9,17.1968,33.5114
4975,2007/1/26,13:28:07, 24-28.899N,119-14.972E,218.1,17.1851,33.5116
4976,2007/1/26,13:29:07, 24-28.743N,119-14.830E,219.5,17.166,33.5109
4977,2007/1/26,13:30:07, 24-28.585N,119-14.686E,219.6,17.1525,33.5093
4978,2007/1/26,13:31:07, 24-28.426N,119-14.548E,217.8,17.0766,33.5048
4979,2007/1/26,13:32:07, 24-28.268N,119-14.406E,221.7,17.0247,33.501
4980,2007/1/26,13:33:07, 24-28.114N,119-14.258E,223,17.0324,33.4779
4981,2007/1/26,13:34:07, 24-27.973N,119-14.098E,228.1,17.0178,33.4551
4982,2007/1/26,13:35:07, 24-27.843N,119-13.927E,230.1,17.0166,33.4482
4983,2007/1/26,13:36:07, 24-27.716N,119-13.753E,228.7,17.0043,33.4432
4984,2007/1/26,13:37:07, 24-27.587N,119-13.577E,232.9,16.9485,33.4393
4985,2007/1/26,13:38:08, 24-27.456N,119-13.400E,228.9,16.8858,33.4328
4986,2007/1/26,13:39:07, 24-27.328N,119-13.223E,230.8,16.8422,33.4076
4987,2007/1/26,13:40:07, 24-27.200N,119-13.050E,233.8,16.8051,33.3668
4988,2007/1/26,13:41:07, 24-27.071N,119-12.872E,231.6,16.7692,33.3362
4989,2007/1/26,13:42:07, 24-26.942N,119-12.696E,230.3,16.7509,33.3153
4990,2007/1/26,13:43:07, 24-26.812N,119-12.522E,230.8,16.7308,33.2911
4993,2007/1/26,13:46:07, 24-26.422N,119-11.983E,230.9,16.6809,33.2445
4994,2007/1/26,13:47:07, 24-26.292N,119-11.803E,231.7,16.6671,33.2324
4995,2007/1/26,13:48:07, 24-26.161N,119-11.623E,233.4,16.6077,33.2212
4996,2007/1/26,13:49:07, 24-26.032N,119-11.441E,225.4,16.5845,33.2016
4997,2007/1/26,13:50:07, 24-25.902N,119-11.263E,231.8,16.532,33.1692
4998,2007/1/26,13:51:08, 24-25.775N,119-11.083E,234.4,16.5023,33.1475
4999,2007/1/26,13:52:07, 24-25.648N,119-10.906E,232.6,16.4237,33.1093
5000,2007/1/26,13:53:07, 24-25.522N,119-10.731E,231.3,16.3372,33.0721
5001,2007/1/26,13:54:07, 24-25.396N,119-10.552E,232.1,16.2503,33.0243
5002,2007/1/26,13:55:08, 24-25.268N,119-10.374E,230.5,16.1998,32.9604
5003,2007/1/26,13:56:07, 24-25.141N,119-10.198E,232.7,16.1409,32.9065
5004,2007/1/26,13:57:07, 24-25.014N,119-10.023E,231.3,16.1036,32.8612
5005,2007/1/26,13:58:07, 24-24.890N,119-09.847E,228,16.0739,32.8247
5006,2007/1/26,13:59:08, 24-24.765N,119-09.674E,227.2,16.0268,32.7991
5007,2007/1/26,14:00:07, 24-24.642N,119-09.500E,231.1,16.0013,32.7794
5008,2007/1/26,14:01:07, 24-24.517N,119-09.327E,230.9,15.9776,32.7494
5009,2007/1/26,14:02:07, 24-24.391N,119-09.149E,234,15.9695,32.7327
5010,2007/1/26,14:03:07, 24-24.262N,119-08.972E,232.1,15.9557,32.7232
5011,2007/1/26,14:04:08, 24-24.133N,119-08.792E,230.1,15.9531,32.7169
5012,2007/1/26,14:05:07, 24-24.005N,119-08.612E,232.1,15.9685,32.7127
5013,2007/1/26,14:06:07, 24-23.877N,119-08.432E,232.1,15.9565,32.7138
5014,2007/1/26,14:07:07, 24-23.749N,119-08.252E,231.8,15.9579,32.7181
5015,2007/1/26,14:08:07, 24-23.624N,119-08.074E,232.9,15.9397,32.7165
5016,2007/1/26,14:09:07, 24-23.498N,119-07.898E,232.6,15.9525,32.7174
5017,2007/1/26,14:10:07, 24-23.373N,119-07.719E,233.4,15.9385,32.7116
5018,2007/1/26,14:11:07, 24-23.246N,119-07.541E,233.9,15.9411,32.7131
5019,2007/1/26,14:12:07, 24-23.120N,119-07.361E,231.6,15.959,32.7133
5020,2007/1/26,14:13:07, 24-22.993N,119-07.179E,234,15.949,32.7172
5021,2007/1/26,14:14:07, 24-22.865N,119-06.997E,232.9,15.9557,32.7232
5022,2007/1/26,14:15:07, 24-22.737N,119-06.814E,234.8,15.982,32.7216
5023,2007/1/26,14:16:07, 24-22.609N,119-06.632E,233.5,15.9772,32.7281
5024,2007/1/26,14:17:07, 24-22.483N,119-06.448E,231.9,15.9655,32.7403
5025,2007/1/26,14:18:07, 24-22.355N,119-06.266E,229.1,15.9688,32.7402
5026,2007/1/26,14:19:07, 24-22.228N,119-06.084E,236.1,15.9663,32.741
5027,2007/1/26,14:20:08, 24-22.101N,119-05.902E,235,15.9713,32.7412
5028,2007/1/26,14:21:07, 24-21.975N,119-05.719E,231.8,15.9488,32.7388
5029,2007/1/26,14:22:07, 24-21.846N,119-05.535E,233.1,15.9258,32.7381
5030,2007/1/26,14:23:07, 24-21.719N,119-05.352E,234.5,15.9341,32.729
5031,2007/1/26,14:24:08, 24-21.592N,119-05.169E,230.4,15.9503,32.7185
5032,2007/1/26,14:25:07, 24-21.464N,119-04.985E,232.2,15.9219,32.7243
5033,2007/1/26,14:26:07, 24-21.337N,119-04.800E,232.9,15.9113,32.7263
5034,2007/1/26,14:27:07, 24-21.208N,119-04.615E,230.3,15.8972,32.7154
5035,2007/1/26,14:28:08, 24-21.080N,119-04.431E,233.6,15.9115,32.7071
5036,2007/1/26,14:29:07, 24-20.953N,119-04.247E,233.4,15.8856,32.7016
5037,2007/1/26,14:30:07, 24-20.826N,119-04.062E,232,15.8826,32.7002
5038,2007/1/26,14:31:07, 24-20.698N,119-03.878E,232.6,15.8751,32.6927
5039,2007/1/26,14:32:08, 24-20.570N,119-03.691E,234.5,15.8749,32.6873
5040,2007/1/26,14:33:07, 24-20.441N,119-03.504E,232.9,15.8748,32.6857
5041,2007/1/26,14:34:07, 24-20.313N,119-03.316E,232.7,15.883,32.6872
5042,2007/1/26,14:35:08, 24-20.183N,119-03.129E,234.9,15.8893,32.689
5043,2007/1/26,14:36:07, 24-20.056N,119-02.941E,230.8,15.8928,32.6936
5044,2007/1/26,14:37:07, 24-19.929N,119-02.754E,233.2,15.896,32.6999
5045,2007/1/26,14:38:07, 24-19.800N,119-02.566E,234.6,15.8872,32.7081
5046,2007/1/26,14:39:08, 24-19.672N,119-02.378E,231.4,15.8892,32.7058
5047,2007/1/26,14:40:08, 24-19.543N,119-02.191E,233.8,15.9095,32.7005
5048,2007/1/26,14:41:07, 24-19.415N,119-02.003E,231.3,15.9027,32.7081
5049,2007/1/26,14:42:07, 24-19.287N,119-01.815E,233.4,15.9263,32.7169
5050,2007/1/26,14:43:08, 24-19.157N,119-01.625E,236.1,15.9684,32.713
5051,2007/1/26,14:44:07, 24-19.028N,119-01.434E,231.7,16.023,32.7267
5052,2007/1/26,14:45:07, 24-18.900N,119-01.243E,232.1,16.041,32.7597
5053,2007/1/26,14:46:07, 24-18.773N,119-01.052E,234.9,16.0859,32.7829
5054,2007/1/26,14:47:08, 24-18.645N,119-00.862E,232.4,16.2181,32.8027
5055,2007/1/26,14:48:08, 24-18.518N,119-00.671E,231.5,16.169,32.8392
5056,2007/1/26,14:49:07, 24-18.390N,119-00.480E,234.8,16.1781,32.9006
5057,2007/1/26,14:50:07, 24-18.262N,119-00.291E,233.6,16.2088,32.8952
5058,2007/1/26,14:51:08, 24-18.134N,119-00.099E,233.6,16.2395,32.8983
5059,2007/1/26,14:52:08, 24-18.007N,118-59.907E,231.7,16.2714,32.9164
5060,2007/1/26,14:53:07, 24-17.879N,118-59.715E,231.7,16.4454,32.9457
5061,2007/1/26,14:54:07, 24-17.752N,118-59.523E,233.6,16.4808,32.9797
5062,2007/1/26,14:55:07, 24-17.626N,118-59.333E,230.1,16.4725,33.0771
5063,2007/1/26,14:56:08, 24-17.502N,118-59.141E,234.2,16.519,33.1056
5064,2007/1/26,14:57:07, 24-17.378N,118-58.951E,235.2,16.5677,33.1132
5065,2007/1/26,14:58:07, 24-17.252N,118-58.771E,234.4,16.8017,33.1324
5066,2007/1/26,14:59:07, 24-17.130N,118-58.595E,233.7,16.8207,33.174